Regional Weather Roundup
Issued by NWS

Home | Current Version | Previous Version | Graphics & Text | Print | Product List | Glossary On
Versions: 1 2 3 4 5 6 7 8 9 10 11 12 13 14 15 16 17 18 19 20 21 22 23 24 25 26 27 28 29 30 31 32 33 34 35 36 37 38 39 40 41 42 43 44 45 46 47 48 49 50
014
ASUS43 KTOP 192308
RWRKS

WEATHER ROUNDUP FOR KANSAS
NATIONAL WEATHER SERVICE GOODLAND KS
500 PM CST THU JAN 19 2017

NOTE:  "FAIR" INDICATES FEW OR NO CLOUDS BELOW 12,000 FEET WITH NO
SIGNIFICANT WEATHER AND/OR OBSTRUCTIONS TO VISIBILITY.

KSZ001>006-013>018-027>032-041>047-200000-
NORTHWEST KANSAS

CITY           SKY/WX    TMP DP  RH WIND       PRES   REMARKS
GOODLAND       CLOUDY    36  35  96 E9        29.53S
HAYS           CLOUDY    45  43  93 CALM      29.59S
HILL CITY      CLOUDY    46  42  86 E8        29.58F
RUSSELL        CLOUDY    45  44  97 SE6       29.58R
$$

KSZ061>065-074>080-084>089-200000-
SOUTHWEST KANSAS

CITY           SKY/WX    TMP DP  RH WIND       PRES   REMARKS
DODGE CITY     CLOUDY    45  38  76 NE3       29.56S
ELKHART          N/A     52  26  36 N6          N/A
GARDEN CITY    CLOUDY    43  37  79 NE5       29.55S
GREAT BEND     CLOUDY    46  44  93 E3        29.58S
LIBERAL        CLOUDY    43  37  81 N6        29.57R
PRATT          CLOUDY    43  39  86 CALM      29.58S
$$

KSZ066>073-081>083-090>101-200000-
SOUTHEAST KANSAS

CITY           SKY/WX    TMP DP  RH WIND       PRES   REMARKS
CHANUTE        CLOUDY    51  45  79 SE9       29.63S
COFFEYVILLE    CLOUDY    52  46  80 S9        29.62F
HUTCHINSON     CLOUDY    49  45  86 E7        29.59S
MEDICINE LODGE   N/A     48  42  80 NE6       29.57R
NEWTON         CLOUDY    45  44  97 E10       29.60F
PARSONS        CLOUDY    52  46  80 SE7       29.63S
WICHITA INTL   CLOUDY    49  44  83 SE9       29.59S
WICHITA JABRA  CLOUDY    46  45  96 E8        29.60R
WICHITA MCCONL CLOUDY    47  44  89 SE9       29.59R
WINFIELD       CLOUDY    51  45  79 SE8       29.60R
$$

KSZ007>012-019>026-033>040-048>060-102>105-200000-
NORTHEAST KANSAS

CITY           SKY/WX    TMP DP  RH WIND       PRES   REMARKS
CONCORDIA      CLOUDY    43  43 100 SE6       29.62R FOG
EMPORIA        CLOUDY    46  45  96 SE10      29.62S FOG
LAWRENCE       CLOUDY    48  46  93 E7        29.64F
MANHATTAN      LGT RAIN  47  44  90 E10       29.62F
MARYSVILLE     CLOUDY    43  43 100 SE5       29.62F FOG
OLATHE IND     CLOUDY    48  46  93 SE5       29.65F
OLATHE EXE     CLOUDY    46  46 100 SE3       29.65F
SALINA         CLOUDY    48  45  89 SE8       29.62R FOG
TOPEKA BILLARD CLOUDY    48  44  86 SE6       29.64F
TOPEKA FORBES  CLOUDY    48  46  93 SE7       29.64S FOG
$$




USA.gov is the U.S. government's official web portal to all federal, state and local government web resources and services.